User: anonymous   Login
Location: Trois-Rivi�res
(46.3500°N, 72.5500°W)
Time: 10:25:15
(UTC-04:00)
Language:

Cosmos 1975 - Orbit

View from above orbital plane
View from above orbital plane
View from above satellite
View from above satellite

Ground track
Ground track

The orbit data is extracted from the following two-line orbital elements,

1 19573U 88093A   14302.79080547  .00003669  00000-0  28429-3 0  3540
2 19573 082.5244 194.1719 0014665 333.8266 026.2216 15.01079147415382
Epoch (UTC): 29 October 2014 18:58:45
Eccentricity: 0.0014665
inclination: 82.5244°
perigee height: 553 km
apogee height: 574 km
right ascension of ascending node: 194.1719°
argument of perigee: 333.8266°
revolutions per day: 15.01079147
mean anomaly at epoch: 26.2216°
orbit number at epoch: 41538

The dashed part of the orbit path shows where the satellite is in the earth's shadow,  

DLR